EW2099 Weather Reports


time (UTC)temp
F
wind
direction
speed
knots
gust
knots
rain 1hr
in
rain 24hr
in
rain mn
in
humidity
%
barometer
mb
20260506194520 52 29 3.5 9.6 0.00 0.00 0.00 67 1012.6
20260506193029 52 21 3.5 7.8 0.00 0.00 0.00 67 1012.5
20260506191517 52 4 2.6 11.3 0.00 0.00 0.00 67 1012.3
20260506190015 52 37 3.5 10.4 0.00 0.00 0.00 66 1012.3
20260506184514 52 24 5.2 10.4 0.00 0.00 0.00 66 1012.2
20260506183013 52 19 1.7 12.2 0.00 0.00 0.00 66 1012.1
20260506181512 53 307 3.5 10.4 0.00 0.00 0.00 65 1012.1
20260506180010 53 328 3.5 13.9 0.00 0.00 0.00 65 1011.8
20260506174508 53 352 3.5 10.4 0.00 0.00 0.00 65 1011.6
20260506173007 53 14 4.3 11.3 0.00 0.00 0.00 64 1011.5
20260506171507 54 42 4.3 10.4 0.00 0.00 0.00 64 1011.5
20260506170005 54 30 5.2 12.2 0.00 0.00 0.00 63 1011.3
20260506164517 54 335 6.1 11.3 0.00 0.00 0.00 63 1011.3
20260506163009 55 50 2.6 10.4 0.00 0.00 0.00 63 1011.3
20260506161505 54 354 5.2 10.4 0.00 0.00 0.00 62 1011.3
20260506160003 55 41 6.1 12.2 0.00 0.00 0.00 62 1011.3
20260506154502 55 55 5.2 14.8 0.00 0.00 0.00 62 1011.4
20260506153001 54 77 5.2 12.2 0.00 0.00 0.00 62 1011.3
20260506151605 55 27 6.1 12.2 0.00 0.00 0.00 60 1011.3
20260506150108 55 37 6.1 13.9 0.00 0.00 0.00 60 1011.3
20260506144600 55 31 7.0 13.0 0.00 0.00 0.00 60 1011.2
20260506143059 56 58 3.5 12.2 0.00 0.00 0.00 62 1011.1
20260506141556 55 51 3.5 13.0 0.00 0.00 0.00 62 1011.1
20260506140056 55 329 5.2 13.9 0.00 0.00 0.00 62 1011.1
20260506134555 56 21 4.3 13.0 0.00 0.00 0.00 61 1011.1
20260506133108 56 4 5.2 15.6 0.00 0.00 0.00 60 1011.1
20260506131611 56 345 3.5 12.2 0.00 0.00 0.00 62 1011.1
20260506130052 56 346 4.3 11.3 0.00 0.00 0.00 61 1011.0
20260506124552 55 23 6.1 13.0 0.00 0.00 0.00 60 1010.9
20260506123050 56 333 5.2 12.2 0.00 0.00 0.00 61 1010.8
20260506121555 55 39 8.7 13.9 0.00 0.00 0.00 61 1010.8
20260506120058 55 34 5.2 12.2 0.00 0.00 0.00 63 1010.7
20260506114545 55 66 4.3 12.2 0.00 0.00 0.00 63 1010.7
20260506113044 54 321 3.5 12.2 0.00 0.00 0.00 64 1010.7
20260506111545 54 31 5.2 13.0 0.00 0.00 0.00 64 1010.6
20260506110041 53 19 6.1 12.2 0.00 0.00 0.00 64 1010.6
20260506104548 53 30 5.2 11.3 0.00 0.00 0.00 63 1010.7
20260506103043 52 32 6.1 14.8 0.00 0.00 0.00 63 1010.7
20260506101534 52 47 4.3 9.6 0.00 0.00 0.00 64 1010.6
20260506100034 52 62 3.5 13.9 0.00 0.00 0.00 63 1010.5
20260506094534 52 32 5.2 11.3 0.00 0.00 0.00 64 1010.4
20260506093033 52 337 3.5 12.2 0.00 0.00 0.00 64 1010.4
20260506091532 52 77 5.2 11.3 0.00 0.00 0.00 63 1010.4
20260506090032 52 32 6.1 12.2 0.00 0.00 0.00 63 1010.2
20260506084607 52 43 4.3 10.4 0.00 0.00 0.00 63 1010.2
20260506083030 52 49 6.1 11.3 0.00 0.00 0.00 64 1010.1
20260506081538 52 36 3.5 13.9 0.00 0.00 0.00 63 1009.9
20260506073027 52 43 4.3 11.3 0.00 0.00 0.00 62 1009.8
20260506071526 52 65 6.1 12.2 0.00 0.00 0.00 62 1009.8
20260506061520 51 46 3.5 12.2 0.00 0.00 0.00 64 1009.6
20260506044515 50 6 5.2 11.3 0.00 0.00 0.00 64 1009.5
20260506043013 50 4 5.2 14.8 0.00 0.00 0.00 64 1009.6
20260506041512 50 353 2.6 13.9 0.00 0.00 0.00 64 1009.6
20260506040010 50 51 7.8 15.6 0.00 0.00 0.00 63 1009.6
20260506034509 50 330 5.2 15.6 0.00 0.00 0.00 63 1009.7
20260506033007 50 28 3.5 13.9 0.00 0.00 0.00 64 1009.8
20260506031505 50 18 5.2 9.6 0.00 0.00 0.00 63 1009.8
20260506030002 50 75 7.0 13.9 0.00 0.00 0.00 64 1009.9
20260506024501 50 11 6.1 13.9 0.00 0.00 0.00 64 1009.9
20260506023109 50 15 3.5 12.2 0.00 0.00 0.00 64 1009.9
20260506021617 50 30 2.6 14.8 0.00 0.00 0.00 65 1010.0
20260506020056 50 27 4.3 13.0 0.00 0.00 0.00 65 1010.0
20260506014555 50 72 5.2 15.6 0.00 0.00 0.00 64 1010.0
20260506013106 50 46 6.1 11.3 0.00 0.00 0.00 65 1010.0
20260506011612 50 63 7.0 14.8 0.00 0.00 0.00 64 1010.2
20260506010055 51 72 4.3 12.2 0.00 0.00 0.00 65 1010.2
20260506004547 51 23 5.2 11.3 0.00 0.00 0.00 65 1010.3
20260506003045 51 51 5.2 10.4 0.00 0.00 0.00 65 1010.4
20260506001546 51 32 5.2 11.3 0.00 0.00 0.00 65 1010.4
20260506000044 51 41 4.3 12.2 0.00 0.00 0.00 63 1010.5
20260505234538 51 51 4.3 14.8 0.00 0.00 0.00 63 1010.7
20260505233037 51 39 3.5 8.7 0.00 0.00 0.00 63 1010.7
20260505231547 51 48 4.3 9.6 0.00 0.00 0.00 63 1010.6
20260505230031 51 45 3.5 10.4 0.00 0.00 0.00 66 1010.7
20260505224530 51 84 5.2 11.3 0.00 0.00 0.00 66 1010.8
20260505223028 51 42 5.2 12.2 0.00 0.00 0.00 66 1010.9
20260505221529 51 51 6.1 10.4 0.00 0.00 0.00 66 1010.8
20260505220024 51 360 3.5 12.2 0.00 0.00 0.00 65 1010.9
20260505214524 51 6 5.2 14.8 0.00 0.00 0.00 66 1010.9
20260505213033 51 41 3.5 13.0 0.00 0.00 0.00 66 1010.9
20260505211521 51 63 5.2 11.3 0.00 0.00 0.00 66 1010.9
20260505210020 51 35 6.1 13.0 0.00 0.00 0.00 66 1011.0
20260505204518 51 49 4.3 15.6 0.00 0.00 0.00 66 1010.8
20260505203027 51 57 5.2 11.3 0.00 0.00 0.00 66 1010.8
20260505201527 52 33 6.1 15.6 0.00 0.00 0.00 66 1010.7
20260505200014 52 32 5.2 14.8 0.00 0.00 0.00 66 1010.7